Location: Waco, TX
(31.5480°N, 97.1670°W)
Time: 15:49:30
(UTC-05:00)

ISS - Pass Details

Date: 12 September 2019
Orbit: 411 x 421 km, 51.6° (Epoch: 17 September)

Event Time Altitude Azimuth Distance (km) Brightness Sun altitude
Rises 07:03:48 0° 318° (NW) 2,352 -0.3 -2.3°
Reaches altitude 10° 07:05:54 10° 321° (NW) 1,489 -1.3 -1.9°
Maximum altitude 07:09:13 64° 44° (NE) 462 -3.2 -1.2°
Drops below altitude 10° 07:12:32 10° 127° (SE) 1,487 -0.1 -0.5°
Sets 07:14:38 0° 130° (SE) 2,349 0.8 0.0°
